map of CJS home
Great Circle Mapper logo
CJS - Airport
Location
City:  Ciudad Juárez, Chihuahua, México
Name:Abraham González International Airport
ICAO / IATA:MMCS / CJS

Details
Type:Airport (Aerodrome, Airfield)
Use:Public/Civil, International (customs port of entry)
Latitude:31°38'10"N (31.636133)
Longitude:106°25'43"W (-106.428666)
Datum:WGS 1984
Elevation:3904 ft (1190 m)
Variation:8.36°E (WMM2015 magnetic declination)
-0.10° annual change
Runways:2
Longest:8858 × 148 ft (2700 × 45 m), paved

Time
Time Zone:UTC-7 (DST-6)
Local Time:

Weather
METAR:MMCS 300445Z 34010KT 10SM SCT040 27/05 A2994 RMK 8/100
TAF:MMCS 300508Z 3006/3106 03005KT P6SM SCT030
FM301600 08010KT P6SM SCT020 SCT100
FM310200 08005KT P6SM SCT100

Related Locations
Nearby:
Farthest:RRG: 11401 mi / 18348 km
Plaine Corail, Rodrigues Island, MU

Find:

   beyond  
but within

Other Information
Maps:
NOTAMs:
Links:
Sources:

  
flag of México   

Sectional Chart

Flight Planning
at skyvector.com

Satellite Image

Google Maps satellite view

 

Copyright © 2004-2015 Karl L. Swartz. All rights reserved.
The Great Circle Mapper name and logo are trademarks of the Great Circle Mapper.
All other trademarks mentioned herein belong to their respective owners.
Please see credits for attibutions and further copyright information.

  Follow gcmap on Facebook Follow gcmap on Twitter Follow gcmap on Google+

hCard Microformat

Geo Microformat